STARLINK-37894

Last updated on Sun Aug 09 2026 00:02:04 GMT+0000 (Coordinated Universal Time)

1 69966U 26157Z 26220.14928283 .00021491 00000+0 39315-3 0 9996 2 69966 53.1592 177.3630 0001090 79.8313 280.2819 15.49327022 4707
UTC large
Height (km)
Speed (km/s)
/
Latitude / Longitude
Inclination (degrees)
Orbital Period (minutes)
Azimuth
Elevation
Range (km)
Doppler Factor

Next 0 passes for location: London (51.5072 / 0.1276)

No passes found over London.
STARLINK-37894